Station SJOM4 - St. Joseph, MI Image indicating link to RSS feed of recent meteorological observations for station SJOM4


Conditions at SJOM4 as of
(4:00 am EDT)
0800 GMT on 06/21/2024:
     

Click on the graph icon in the table below to see a time series plot of the last five days of that observation.

5-day plot - Wind Direction Wind Direction (WDIR): E ( 90 deg true )
5-day plot - Wind Speed Wind Speed (WSPD): 1.9 kts
5-day plot - Wind Gust Wind Gust (GST): 2.9 kts
5-day plot - Atmospheric Pressure Atmospheric Pressure (PRES):30.22 in
5-day plot - Pressure Tendency Pressure Tendency (PTDY):-0.03 in ( Falling )
5-day plot - Air Temperature Air Temperature (ATMP): 68.7 °F
5-day plot - Wind Speed at 10 Meters Wind Speed at 10 meters (WSPD10M): 1.9 kts
5-day plot - Wind Speed at 20 Meters Wind Speed at 20 meters (WSPD20M): 1.9 kts
5-day plot -  Wind Speed, Wind Gust and Atmospheric Pressure Combined plot of Wind Speed, Gust, and Air Pressure
Previous observations
TIME
(EDT)
5-day plot - Wind Direction
WDIR
 
5-day plot - Wind Speed
WSPD
kts
5-day plot - Wind Gust
GST
kts
5-day plot - Wave Height
WVHT
ft
5-day plot - Dominant Wave Period
DPD
sec
5-day plot - Average Wave Period
APD
sec
5-day plot - Mean Wave Direction
MWD
 
5-day plot - Atmospheric Pressure
PRES
in
5-day plot - Pressure Tendency
PTDY
in
5-day plot - Air Temperature
ATMP
°F
5-day plot - Water Temperature
WTMP
°F
5-day plot - Dew Point
DEWP
°F
5-day plot - Salinity
SAL
psu
5-day plot - Visibility
VIS
nmi
5-day plot - Tide (above MLLW)
TIDE
ft
2024-06-21 03:50 am NE 1.0 2.9----30.23- 68.5-----
2024-06-21 03:40 amENE 1.9 4.1----30.22- 68.4-----
2024-06-21 03:30 am N 1.9 5.1----30.24- 68.4-----
2024-06-21 03:20 am N 2.9 5.1----30.25- 68.5-----
2024-06-21 03:10 am NW 4.1 6.0----30.26- 68.4-----
2024-06-21 03:00 amWNW 5.1 8.9----30.27+0.00 68.5-----
2024-06-21 02:50 amWNW 7.0 8.9----30.26- 68.9-----
2024-06-21 02:40 am W 8.9 9.9----30.26- 69.6-----
2024-06-21 02:30 am NW 1.9 5.1----30.26- 69.6-----
2024-06-21 02:20 am N 4.1 5.1----30.24- 69.8-----
2024-06-21 02:10 am N 5.1 6.0----30.26- 70.0-----
2024-06-21 02:00 amWNW 1.9 6.0----30.25-0.03 70.0-----
2024-06-21 01:50 am W 5.1 8.0----30.25- 70.3-----
2024-06-21 01:40 am W 5.1 9.9----30.27- 71.2-----
2024-06-21 01:30 am SW 2.9 2.9----30.24- 71.1-----
2024-06-21 01:20 am W 1.9 2.9----30.26- 71.1-----
2024-06-21 01:10 amNNW 1.9 2.9----30.26- 70.9-----
2024-06-21 01:00 amNNW 1.0 2.9----30.25+0.00 70.5-----
2024-06-21 12:50 am N 1.9 1.9----30.26- 70.3-----
2024-06-21 12:40 amWNW 1.0 1.9----30.28- 70.3-----
2024-06-21 12:30 amNNW 1.9 2.9----30.26- 70.0-----
2024-06-21 12:20 am- 0.0 1.9----30.27- 69.6-----
2024-06-21 12:10 amSSW 1.9 2.9----30.27- 69.4-----
2024-06-21 12:00 am- 0.0 2.9----30.27+0.02 69.4-----
2024-06-20 11:50 pm NE 1.9 2.9----30.28- 69.3-----
2024-06-20 11:40 pmNNE 4.1 5.1----30.27- 69.3-----
2024-06-20 11:30 pm N 4.1 6.0----30.25- 69.3-----
2024-06-20 11:20 pmNNE 5.1 8.0----30.27- 69.1-----
2024-06-20 11:10 pm N 5.1 7.0----30.27- 69.3-----
2024-06-20 11:00 pm N 6.0 8.0----30.28+0.04 69.3-----
2024-06-20 10:50 pm N 6.0 8.9----30.28- 69.6-----
2024-06-20 10:40 pmNNW 7.0 8.0----30.26- 70.0-----
2024-06-20 10:30 pm N 5.1 7.0----30.28- 70.0-----
2024-06-20 10:20 pmNNW 6.0 7.0----30.27- 70.3-----
2024-06-20 10:10 pm N 6.0 7.0----30.28- 70.3-----
2024-06-20 10:00 pm N 6.0 8.0----30.25-0.02 70.2-----
2024-06-20 09:50 pm N 6.0 8.9----30.26- 70.5-----
2024-06-20 09:40 pmNNE 6.0 8.0----30.24- 70.7-----
2024-06-20 09:30 pmNNE 5.1 9.9----30.26- 70.5-----
2024-06-20 09:20 pmNNE 6.0 8.9----30.24- 70.5-----
2024-06-20 09:10 pmNNE 7.0 8.9----30.26- 70.7-----
2024-06-20 09:00 pmNNE 7.0 8.9----30.25-0.02 70.7-----
2024-06-20 08:50 pmNNE 5.1 9.9----30.24- 70.7-----
2024-06-20 08:40 pmNNE 7.0 9.9----30.26- 70.9-----
2024-06-20 08:30 pm N 8.9 11.1----30.25- 71.1-----
2024-06-20 08:20 pmNNE 7.0 11.1----30.26- 71.2-----
2024-06-20 08:10 pm N 7.0 9.9----30.26- 72.0-----
2024-06-20 08:00 pm N 7.0 9.9----30.24-0.02 72.9-----
2024-06-20 07:50 pmNNE 7.0 8.9----30.25- 73.0-----
2024-06-20 07:40 pmNNE 6.0 8.0----30.25- 73.6-----
2024-06-20 07:30 pmNNE 7.0 8.9----30.23- 72.5-----
2024-06-20 07:20 pmNNE 6.0 9.9----30.25- 72.1-----
2024-06-20 07:10 pmNNE 7.0 11.1----30.26- 72.3-----
2024-06-20 07:00 pmNNE 8.9 11.1----30.27+0.00 72.9-----
2024-06-20 06:50 pm N 8.9 11.1----30.27- 73.8-----
2024-06-20 06:40 pm N 8.0 8.9----30.25- 73.6-----
2024-06-20 06:30 pmNNE 7.0 9.9----30.25- 73.2-----
2024-06-20 06:20 pm N 8.0 9.9----30.25- 73.8-----
2024-06-20 06:10 pm N 8.0 8.9----30.28- 73.9-----
2024-06-20 06:00 pm N 8.0 9.9----30.27-0.03 73.9-----
2024-06-20 05:50 pm N 8.0 8.9----30.27- 74.1-----
2024-06-20 05:40 pm N 6.0 7.0----30.27- 74.5-----
2024-06-20 05:30 pm N 5.1 7.0----30.28- 75.0-----
2024-06-20 05:20 pm N 5.1 6.0----30.26- 74.7-----
2024-06-20 05:10 pm N 5.1 6.0----30.27- 75.2-----
2024-06-20 05:00 pm N 4.1 6.0----30.26-0.05 75.0-----
2024-06-20 04:50 pm N 5.1 6.0----30.27- 75.0-----
2024-06-20 04:40 pm N 5.1 6.0----30.26- 73.9-----
2024-06-20 04:30 pm N 4.1 6.0----30.27- 74.3-----
2024-06-20 04:20 pm N 6.0 7.0----30.26- 74.1-----
2024-06-20 04:10 pm N 6.0 7.0----30.28- 74.8-----
2024-06-20 04:00 pm N 6.0 6.0----30.27-0.02 74.8-----
2024-06-20 03:50 pm N 5.1 6.0----30.29- 74.5-----
2024-06-20 03:40 pm N 6.0 7.0----30.28- 74.3-----
2024-06-20 03:30 pm N 5.1 6.0----30.29- 75.0-----
2024-06-20 03:20 pm N 4.1 6.0----30.28- 75.6-----
2024-06-20 03:10 pm N 4.1 6.0----30.29- 75.4-----
2024-06-20 03:00 pm N 4.1 6.0----30.30-0.02 75.0-----
2024-06-20 02:50 pm N 4.1 6.0----30.29- 74.8-----
2024-06-20 02:40 pm N 2.9 6.0----30.29- 73.9-----
2024-06-20 02:30 pm N 4.1 7.0----30.30- 73.2-----
2024-06-20 02:20 pm N 6.0 7.0----30.29- 72.7-----
2024-06-20 02:10 pm N 7.0 7.0----30.30- 72.9-----
2024-06-20 02:00 pmNNW 6.0 7.0----30.31+0.02 72.9-----
2024-06-20 01:50 pm NW 5.1 6.0----30.32- 72.9-----
2024-06-20 01:40 pm NW 4.1 8.0----30.30- 73.2-----
2024-06-20 01:30 pm NW 7.0 8.0----30.32- 74.5-----
2024-06-20 01:20 pm W 5.1 8.0----30.30- 79.2-----
2024-06-20 01:10 pm W 5.1 7.0----30.31- 80.8-----
2024-06-20 01:00 pm SW 5.1 6.0----30.29+0.00 81.5-----
2024-06-20 12:50 pm SW 5.1 5.1----30.31- 81.7-----
2024-06-20 12:40 pmWSW 4.1 5.1----30.32- 81.7-----
2024-06-20 12:30 pm SW 4.1 5.1----30.30- 81.1-----
2024-06-20 12:20 pm SW 5.1 7.0----30.30- 81.0-----
2024-06-20 12:10 pm SW 6.0 7.0----30.32- 81.3-----
2024-06-20 12:00 pm SW 4.1 5.1----30.32+0.01 82.2-----
2024-06-20 11:50 amWSW 4.1 5.1----30.30- 82.4-----
2024-06-20 11:40 am SW 2.9 4.1----30.32- 83.5-----
2024-06-20 11:30 am SW 1.9 2.9----30.32- 84.7-----
2024-06-20 11:20 am SW 1.9 2.9----30.32- 85.5-----
2024-06-20 11:10 amWSW 1.0 1.0----30.30- 83.5-----
2024-06-20 11:00 am- 0.0 1.0----30.29-0.01 79.3-----
2024-06-20 10:50 am- 0.0 1.9----30.31- 78.3-----
2024-06-20 10:40 am NW 1.0 2.9----30.29- 77.9-----
2024-06-20 10:30 am N 1.9 4.1----30.29- 77.4-----
2024-06-20 10:20 am N 1.9 4.1----30.29- 76.5-----
2024-06-20 10:10 am N 1.9 4.1----30.30- 75.7-----
2024-06-20 10:00 am N 2.9 5.1----30.29+0.00 75.9-----
2024-06-20 09:50 am N 4.1 4.1----30.31- 75.9-----
2024-06-20 09:40 am N 2.9 4.1----30.31- 76.3-----
2024-06-20 09:30 am N 2.9 4.1----30.29- 75.9-----
2024-06-20 09:20 amNNE 2.9 4.1----30.29- 75.0-----
2024-06-20 09:10 am N 1.9 2.9----30.31- 75.4-----
2024-06-20 09:00 amNNE 1.0 1.9----30.31+0.06 74.7-----
2024-06-20 08:50 am N 1.9 1.9----30.31- 75.4-----
2024-06-20 08:40 am N 1.9 2.9----30.30- 75.2-----
2024-06-20 08:30 amNNE 1.9 4.1----30.29- 75.6-----
2024-06-20 08:20 am N 1.9 4.1----30.30- 76.1-----
2024-06-20 08:10 am N 1.9 2.9----30.31- 76.8-----
2024-06-20 08:00 am- 0.0 1.9----30.30+0.05 76.3-----
2024-06-20 07:50 amNNE 1.0 2.9----30.29- 74.7-----
2024-06-20 07:40 am- 0.0 1.9----30.29- 74.1-----
2024-06-20 07:30 am- 0.0 1.0----30.28- 74.1-----
2024-06-20 07:20 am- 0.0 2.9----30.30- 73.9-----
2024-06-20 07:10 am- 0.0 1.0----30.28- 74.1-----
2024-06-20 07:00 am- 0.0 1.9----30.29+0.03 73.9-----
2024-06-20 06:50 am NE 1.0 1.9----30.27- 73.9-----
2024-06-20 06:40 am- 0.0 1.0----30.28- 73.6-----
2024-06-20 06:30 am- 0.0 2.9----30.26- 74.1-----
2024-06-20 06:20 amENE 1.0 1.9----30.26- 73.8-----
2024-06-20 06:10 am- 0.0 1.9----30.27- 73.8-----
2024-06-20 06:00 am- 0.0 2.9----30.25-0.01 73.9-----
2024-06-20 05:50 am E 1.0 2.9----30.26- 74.1-----
2024-06-20 05:40 am- 0.0 1.0----30.25- 73.9-----
2024-06-20 05:30 am- 0.0 2.9----30.27- 73.9-----
2024-06-20 05:20 am E 2.9 5.1----30.24- 74.5-----
2024-06-20 05:10 am- 0.0 6.0----30.24- 74.5-----
2024-06-20 05:00 am E 2.9 6.0----30.25-0.01 74.7-----
2024-06-20 04:50 am- 0.0 2.9----30.26- 74.7-----
2024-06-20 04:40 am- 0.0 2.9----30.27- 74.8-----
2024-06-20 04:30 am- 0.0 1.9----30.26- 74.7-----
2024-06-20 04:20 am- 0.0 2.9----30.27- 74.7-----
2024-06-20 04:10 am- 0.0 2.9----30.24- 75.0-----
2024-06-20 04:00 am E 1.9 6.0----30.26+0.01 75.2-----
2024-06-20 03:50 am E 1.9 6.0----30.25- 75.6-----